Regional Weather Roundup
Issued by NWS

Home | Current Version | Previous Version | Graphics & Text | Print | Product List | Glossary On
Versions: 1 2 3 4 5 6 7 8 9 10 11 12 13 14 15 16 17 18 19 20 21 22 23 24 25 26 27 28 29 30 31 32 33 34 35 36 37 38 39 40 41 42 43 44 45 46 47 48 49 50
000
ASUS43 KBIS 270302
RWRND

NORTH DAKOTA REGIONAL WEATHER ROUNDUP
NATIONAL WEATHER SERVICE BISMARCK ND
1000 PM CDT WED APR 26 2017

NOTE: "FAIR" INDICATES FEW OR NO CLOUDS BELOW 12,000 FEET WITH NO
SIGNIFICANT WEATHER AND/OR OBSTRUCTIONS TO VISIBILITY.


NDZ001>003-009>011-017-270400-
NORTHWEST NORTH DAKOTA

CITY           SKY/WX    TMP DP  RH WIND       PRES   REMARKS
WILLISTON      FAIR      41  20  43 E9        29.78R
MINOT          FAIR      37  27  67 NE10      29.78R
MINOT AFB      CLEAR     37  26  65 NE9       29.78R
$$

NDZ018>021-031>035-040>046-270400-
SOUTHWEST NORTH DAKOTA

CITY           SKY/WX    TMP DP  RH WIND       PRES   REMARKS
BISMARCK       CLOUDY    38  30  73 E10       29.78R
DICKINSON      FAIR      33  20  58 NE6       29.72R
GARRISON         N/A     34  27  75 E7        29.77R
HETTINGER ARPT CLEAR     32  24  72 NE7       29.73R
$$

NDZ004>008-012>016-024-026-027-054-270400-
NORTHEAST NORTH DAKOTA

CITY           SKY/WX    TMP DP  RH WIND       PRES   REMARKS
GRAND FORKS    LGT SNOW  32  30  92 N13       29.78S FOG
GRND FRKS AFB  LGT SNOW  30  28  93 N16       29.79S FOG     WCI  19
DEVILS LAKE    CLOUDY    34  27  75 E7        29.79S
$$

NDZ022-023-025-028>030-036>039-047>053-270400-
SOUTHEAST NORTH DAKOTA

CITY           SKY/WX    TMP DP  RH WIND       PRES   REMARKS
FARGO          LGT SNOW  29  28  96 N18       29.74R VSB 3/4 WCI  16
JAMESTOWN      CLOUDY    30  26  85 NE13      29.76R WCI  20
$$





USA.gov is the U.S. government's official web portal to all federal, state and local government web resources and services.